Tracking 19832 objects as of 24-Aug-2019
HD Live streaming from Space Station
objects crossing your sky now

COSMOS 2251 DEB

Track COSMOS 2251 DEB now!
10-day predictions


NORAD ID: 34122
Int'l Code: 1993-036KT
Perigee: 669.9 km
Apogee: 833.9 km
Inclination: 74.0 °
Period: 99.7 minutes
Semi major axis: 7122 km
RCS: 0.0293 m2 (small)
Launch date: June 16, 1993
Source: Commonwealth of Independent States (former USSR) (CIS)
Launch site: PLESETSK MISSILE AND SPACE COMPLEX (PKMTR)

Note: This is SATELLITE DEBRIS
aabbcc
Your satellite tracking list
Your tracking list is empty




NASA's NSSDC Master Catalog

Two Line Element Set (TLE):
1 34122U 93036KT  19235.74590994 +.00000312 +00000-0 +91976-4 0  9992
2 34122 074.0441 120.0919 0115154 236.7502 178.8270 14.44175078553139
Source of the keplerian elements: AFSPC